< Cyclone 198012 1980 Season Cyclone 198014 >
Cyclone 198013 (SINA)
General InformationTrack Information on Google Maps || ResourceGoogle EarthGE AnimationAtom FeedGeoJSON
Detalied Best Track (Time Zone = UTC)
Year Month Day Hour Lat. Long. Pressure (hPa) Wind (kt) Class Image Chart
1980 3 9 00 -11.9 161.0 1005 0 0 -- --
1980 3 9 06 -12.3 161.5 1004 0 0 -- --
1980 3 9 12 -12.9 162.0 1004 0 0 -- --
1980 3 9 18 -13.3 161.5 1003 0 0 -- --
1980 3 10 00 -13.6 161.0 1003 0 0 -- --
1980 3 10 06 -13.9 160.5 1001 0 0 -- --
1980 3 10 12 -14.5 160.0 1000 0 0 -- --
1980 3 10 18 -15.1 159.7 999 0 0 -- --
1980 3 11 00 -15.8 159.4 998 0 0 -- --
1980 3 11 06 -16.4 159.5 996 0 0 -- --
1980 3 11 12 -17.2 159.5 995 0 0 -- --
1980 3 11 18 -18.1 159.7 994 0 0 -- --
1980 3 12 00 -18.7 160.2 993 0 0 -- --
1980 3 12 06 -19.5 161.0 990 0 0 -- --
1980 3 12 12 -20.3 161.8 987 0 0 -- --
1980 3 12 18 -21.1 162.8 984 0 0 -- --
1980 3 13 00 -22.1 164.1 981 0 0 -- --
1980 3 13 06 -23.2 165.5 983 0 0 -- --
1980 3 13 12 -24.5 167.5 986 0 0 -- --
1980 3 13 18 -25.9 169.5 988 0 0 -- --
< Cyclone 198012 1980 Season Cyclone 198014 >

Help